Location: Grust
(42.8833°N, 0.0333°W)
Time: 14:02:26
(UTC+00:00)

Cosmos 1758 Rocket - Pass Details

Date: 25 October 2020
Orbit: 601 x 637 km, 82.5° (Epoch: 24 November)

Event Time Altitude Azimuth Distance (km) Brightness Sun altitude
Rises 17:57:04 0° 347° (NNW) 2,912 7.1 -10.8°
Reaches altitude 10° 17:59:20 10° 344° (NNW) 1,995 6.3 -11.2°
Maximum altitude 18:03:40 58° 266° (W) 721 4.3 -12.0°
Drops below altitude 10° 18:07:55 10° 187° (S) 1,958 6.3 -12.8°
Sets 18:10:08 0° 183° (S) 2,852 7.1 -13.2°
